Weather in Baltay

Russia / Saratov Oblast     52°28′04″N   46°37′35″E
temp.,
°C
wind,
m/s
gust,
m/s
humid.,
%
clouds,
%
prec.,
mm/h
press.,
hPa
HPBL,
m
28 february, sun
sun2801:00−15nnw7128986 0.0 1007512
04:00−16nnw7148878 0.0 1009483
07:00−17nnw6138961 0.0 1011392
10:00−16nnw6118939 0.0 1012400
13:00−13nw698712 0.0 1012519
16:00−11nw698742 0.0 1013597
19:00−15nw489397 0.0 1015137
22:00−17nnw469576 0.0 101798
1 march, mon
mon101:00−18nnw469496 0.0 1019107
04:00−19nnw449565 0.0 102179
07:00−20nnw44961 0.0 102272
10:00−16nnw47920 0.0 1024213
13:00−12nw35900 0.0 1025272
16:00−10wnw47900 0.0 1024358
19:00−14w339517 0.0 102436
22:00−15w34959 0.0 102448
2 march, tue
tue201:00−13wsw389667 0.0 1022185
04:00−9wsw5129583 0.1 1018363
07:00−6wsw71492100 0.3 1015534
10:00−3wsw81490100 0.6 1012664
13:000wsw81494100 0.3 1009878
16:000w81399100 0.4 1007755
19:000wnw5996100 0.6 1006490
22:00−3nw489495 0.9 1006192
3 march, wed
wed301:00−5nw489579 0.0 1006157
04:00−7nw349489 0.0 100665
07:00−8nw3495100 0.0 100661
10:00−6nw479490 0.0 1008253
13:00−2nw588968 0.0 1008680
16:00−1nw688582 0.1 1009928
19:00−5nw499464 0.0 1010187
22:00−8nw479143 0.0 1013104
4 march, thu
thu401:00−10wnw47930 0.0 1014126
04:00−11wnw410950 0.0 1014159
07:00−11w5109331 0.0 1014173
10:00−6wsw7139249 0.0 1012494
13:00−2wsw8149099 0.0 1009827
16:00−1wsw91588100 0.1 1007951
19:00−1wsw101684100 0.0 1005987
22:00−1wsw81787100 0.1 1005864